Showing default

BRO-18, 64550

Orbit data source: Space-Track

BRO-18, 64550 is a payload satellite owned by Unseen Labs (FR) in SSO that was launched on Mon, 23 Jun 2025 UTC via an FALCON 9 launch vehicle from the Air Force Western Test Range (AFWTR). Payload-class satellites include a variety of spacecraft equipped with specific instruments for various scientific and technological missions. These include communications satellites like Starlink; space stations such as the ISS; scientific satellites like the Hubble; Earth observation satellites from companies like Planet Labs, Umbra, and HawkEye 360; GPS; miniature CubeSats for education and research; and military/defense satellites.

Loading next visibility...
Identifier
64550, 2025-135Y
Orbit
SSO
Country
Flag of FRFR
Related business
Manufacturer
GOMSpace
Mission
Operational Commercial Sigint
Bus & Motor
CUBESAT 8U, Unknown motor
Mass
15 kg wet, ~15 kg dry
Launch date (UTC)
2025-06-23 (7 months ago)
Launch vehicle
FALCON 9
Launch site
Air Force Western Test Range (AFWTR)
Object type
Payload
Rocket body
Debris
Shape & HBR
Box, 0.2 m
Radar Cross Section
0.100 m², Medium (>0.1 m² and < 1m²)

Expand to show TLE details & history
Last TLE update: 9 hours ago

TLE from 9 hours ago
0 BRO-18
1 64550U 25135Y   26035.84985597  .00006197  00000-0  28593-3 0  9990
2 64550  97.4496 152.1683 0001456  45.4730 314.6624 15.20592637 34751
Epoch: 2026-02-04T20:23Z
TLE epoch observation values (Epoch: 2026-02-04T20:23:47.555Z)
Latitude
-0.00005°
Longitude
71.20963°
Altitude
506.437 km
Speed
7.611 km/s
True Right ascension
10h 08m 40s
True Declination
0° 00' 00"
Sunlit
Object was in full shadow at epoch
Visualization orbit readout
Latitude
Unknown
Longitude
Unknown
Altitude
Unknown
Speed
Unknown
Apparent Right ascension
Unknown
Apparent Declination
Unknown
Sunlit
N/A
Visualization observer readout
Local Sidereal Time
07:52:49
Azimuth
Unknown
Elevation
Unknown
Doppler factor
Unknown
Orbital elements
Apogee altitude
502.02 km
Perigee altitude
500.017 km
Semi-major axis
6,879.156 km
Eccentricity
0.00015
Inclination
97.4496°
RAAN
152.1683°
Arg. of periapsis
45.473°
True anomaly
314.65053°
Mean anomaly
314.6624°
Eccentric anomaly
314.65647°
Mean motion
3.804 °/min
Orbital period
94.64 mins
BSTAR
0.00028593
Loading maneuver chart data...
Computing Atmospheric mass density...
Loading historical data...
Loading historical data...
Loading historical data...
Loading historical data...
Loading historical data...
Loading historical data...
Loading historical data...

Documentation

Showing up to 5 results
|